Location: Home
(42.5358°N, 72.7383°W)
Time: 04:29:21
(UTC-04:00)

IRIDIUM 152 - Pass Details

Date: 09 July 2022
Orbit: 776 x 779 km, 86.4° (Epoch: 16 August)

Event Time Altitude Azimuth Distance (km) Brightness Sun altitude
Exits shadow 02:29:24 - 131° (SE) 2,877 ? -21.6°
Reaches altitude 10° 02:31:21 10° 117° (ESE) 2,329 ? -21.5°
Maximum altitude 02:34:37 17° 78° (ENE) 1,892 ? -21.3°
Drops below altitude 10° 02:37:53 10° 39° (NE) 2,340 ? -21.0°
Sets 02:41:00 0° 20° (NNE) 3,273 ? -20.8°
